Location: Eastchurch
(51.4000°N, 0.8667°E)
Time: 00:04:56
(UTC+00:00)

Cosmos 1733 Rocket - Pass Details

Date: 19 January 2026
Orbit: 596 x 621 km, 82.5° (Epoch: 18 February)

Event Time Altitude Azimuth Distance (km) Brightness Sun altitude
Rises 17:49:49 0° 355° (N) 2,899 6.4 -13.0°
Reaches altitude 10° 17:52:12 10° 3° (N) 1,985 5.5 -13.4°
Maximum altitude 17:56:17 37° 72° (ENE) 961 3.5 -14.0°
Drops below altitude 10° 18:00:19 10° 140° (SE) 1,956 5.4 -14.6°
Sets 18:02:38 0° 149° (SSE) 2,850 6.3 -15.0°
